{"data":{"norad_id":47508,"epoch":"2026-09-19T23:28:50.875104Z","epoch_age_seconds":63227,"freshness":"FRESH","line1":"1 47508U 21006CZ  26262.97836661  .00004597  00000+0  13385-3 0  9994","line2":"2 47508  97.2108 304.3401 0005728 207.7238 152.3701 15.35882552314044","mean_motion":15.35882552,"eccentricity":0.0005728,"inclination_deg":97.2108,"raan_deg":304.3401,"arg_perigee_deg":207.7238,"mean_anomaly_deg":152.3701,"bstar":0.00013385,"rev_number":31404,"period_min":93.757169005199,"perigee_km":454.38441685089,"apogee_km":462.21623945402,"semimajor_km":6836.4373281525,"source":"CELESTRAK","updated_at":"2026-09-20T09:00:47.448624Z"}}